(461918) = 2006 RJ108 = 2006 VZ159

Discovered at Mauna Kea on 2006-09-14 by J. Masiero.

Orbit

Orbit type: Mars-crosser

Note: WebGL enabled browser required.

epoch2022-08-09.0
epoch JD2459800.5
perihelion date2021-08-01.58982
perihelion JD2459428.08982
argument of perihelion (°)35.03658
ascending node (°)188.85600
inclination (°)5.38511
eccentricity0.2297954
perihelion distance (AU)1.4682250
Tisserand w.r.t. Jupiter3.9
ΔV w.r.t. Earth (km/sec)7.2
semimajor axis (AU)1.9062792
mean anomaly (°)139.45870
mean daily motion (°/day)0.37447610
aphelion distance (AU)2.344
period (years)2.63
P-vector [x]-0.72103107
P-vector [y]-0.65523282
P-vector [z]-0.22535339
Q-vector [x]0.69275208
Q-vector [y]-0.68846536
Q-vector [z]-0.21473240
absolute magnitude19.14
phase slope0.15
uncertainty0
referenceMPO 722896
observations used207
oppositions8
arc length (days)8809
first opposition used1998
last opposition used2022
residual rms (arc-secs)0.71
perturbers coarse indicatorM-v
perturbers precise indicator003El
first observation date used1998-09-19.0
last observation date used2022-11-01.0
computer nameMPCLINUX
Minimum Orbit Intersection Distances (in AU)
for orbit epoch: 2459800.5, reference: E2022-V57
Mercury1.01625
Venus0.74506
Earth0.46499
Mars0.11787
Jupiter2.63015
Saturn6.80574
Uranus16.7176
Neptune27.5384

Observations

215 total observations over interval: 1998 09 19.287992 – 2022 11 01.326192
These data are available for download (format description).

Date (UT) J2000 RA J2000 Dec Magn Location Ref
1998 09 19.287992 23 45 42.659 +00 50 04.05   645 – Apache Point-Sloan Digital Sky Survey MPS 482360
1998 09 19.288821 23 45 42.592 +00 50 03.46   645 – Apache Point-Sloan Digital Sky Survey MPS 482361
1998 09 19.290479 23 45 42.467 +00 50 02.38   645 – Apache Point-Sloan Digital Sky Survey MPS 482361
1998 09 19.291308 23 45 42.425 +00 50 02.03   645 – Apache Point-Sloan Digital Sky Survey MPS 482361
1998 09 25.267004 23 39 15.859 -00 12 24.61   645 – Apache Point-Sloan Digital Sky Survey MPS 488438
1998 09 25.267418 23 39 15.858 -00 12 24.54   645 – Apache Point-Sloan Digital Sky Survey MPS 488438
1998 09 25.267832 23 39 15.800 -00 12 24.97   645 – Apache Point-Sloan Digital Sky Survey MPS 488438
1998 09 25.268247 23 39 15.826 -00 12 24.88   645 – Apache Point-Sloan Digital Sky Survey MPS 488438
2006 09 14.390278 01 06 19.92 +07 31 58.4 22.5 g 568 – Maunakea MPS 235394
2006 09 14.401389 01 06 19.32 +07 31 53.1 22.0 g 568 – Maunakea MPS 235394
2006 09 14.413194 01 06 18.67 +07 31 47.3 22.0 g 568 – Maunakea MPS 235394
2006 09 14.425000 01 06 18.02 +07 31 41.6 22.0 g 568 – Maunakea MPS 235394
2006 09 14.436111 01 06 17.41 +07 31 36.2 22.0 g 568 – Maunakea MPS 235395
2006 09 14.447917 01 06 16.76 +07 31 30.4 21.5 g 568 – Maunakea MPS 235395
2006 09 14.459028 01 06 16.15 +07 31 25.0 22.5 g 568 – Maunakea MPS 235395
2006 09 14.470833 01 06 15.50 +07 31 19.3 22.0 g 568 – Maunakea MPS 235395
2006 09 14.482639 01 06 14.84 +07 31 13.5 22.5 g 568 – Maunakea MPS 235395
2006 09 14.494444 01 06 14.19 +07 31 07.7 22.0 g 568 – Maunakea MPS 235395
2006 09 14.506250 01 06 13.54 +07 31 02.0 22.0 g 568 – Maunakea MPS 235395
2006 09 14.529861 01 06 12.23 +07 30 50.4 22.0 g 568 – Maunakea MPS 235395
2006 09 14.564583 01 06 10.31 +07 30 33.3 22.0 g 568 – Maunakea MPS 235395
2006 09 17.342361 01 03 39.27 +07 07 11.6 21.5 r 568 – Maunakea MPS 235395
2006 09 17.382639 01 03 36.91 +07 06 50.9 22.0 r 568 – Maunakea MPS 235395
2006 09 17.395139 01 03 36.17 +07 06 44.4 22.0 r 568 – Maunakea MPS 235395
2006 09 17.407639 01 03 35.44 +07 06 37.9 22.0 r 568 – Maunakea MPS 235395
2006 09 17.420139 01 03 34.70 +07 06 31.5 21.5 r 568 – Maunakea MPS 235395
2006 09 17.433333 01 03 33.92 +07 06 24.7 22.0 r 568 – Maunakea MPS 235395
2006 09 17.445833 01 03 33.18 +07 06 18.2 21.5 r 568 – Maunakea MPS 235395
2006 09 21.332639 00 59 44.32 +06 31 30.6 21.5 g 568 – Maunakea MPS 235395
2006 09 21.343750 00 59 43.62 +06 31 24.4 21.5 g 568 – Maunakea MPS 235395
2006 09 21.366667 00 59 42.17 +06 31 11.8 22.0 g 568 – Maunakea MPS 235395
2006 09 21.448611 00 59 36.95 +06 30 26.6 21.5 g 568 – Maunakea MPS 235395
2006 09 22.407639 00 58 37.91 +06 21 32.0 22.0 g 568 – Maunakea MPS 235395
2006 09 22.430556 00 58 36.42 +06 21 19.1 21.5 g 568 – Maunakea MPS 235395
2006 09 22.442361 00 58 35.65 +06 21 12.5 22.0 g 568 – Maunakea MPS 235395
2006 09 22.465278 00 58 34.16 +06 20 59.7 21.5 g 568 – Maunakea MPS 235395
2006 09 22.476389 00 58 33.44 +06 20 53.4 22.0 g 568 – Maunakea MPS 235395
2006 09 22.488194 00 58 32.67 +06 20 46.8 21.5 g 568 – Maunakea MPS 235395
2006 09 22.511111 00 58 31.18 +06 20 33.9 22.5 g 568 – Maunakea MPS 235395
2006 09 22.522917 00 58 30.42 +06 20 27.3 21.5 g 568 – Maunakea MPS 235395
2006 09 22.534722 00 58 29.65 +06 20 20.6 22.5 g 568 – Maunakea MPS 235395
2006 09 22.545833 00 58 28.93 +06 20 14.4 22.0 g 568 – Maunakea MPS 235395
2006 09 22.557639 00 58 28.17 +06 20 07.7 22.5 g 568 – Maunakea MPS 235395
2006 09 22.568750 00 58 27.45 +06 20 01.4 22.0 g 568 – Maunakea MPS 235395
2006 09 22.580556 00 58 26.69 +06 19 54.8 22.0 g 568 – Maunakea MPS 235395
2006 09 22.591667 00 58 25.97 +06 19 48.5 22.5 g 568 – Maunakea MPS 235395
2006 09 28.25278 00 52 21.79 +05 25 13.2 21.7 V G96 – Mt. Lemmon Survey MPS 235395
2006 09 28.26427 00 52 21.03 +05 25 06.4 21.1 V G96 – Mt. Lemmon Survey MPS 235395
2006 09 28.27585 00 52 20.35 +05 24 58.8 21.2 V G96 – Mt. Lemmon Survey MPS 235395
2006 09 28.28747 00 52 19.48 +05 24 52.7 21.3 V G96 – Mt. Lemmon Survey MPS 235395
2006 11 09.22161 00 16 20.46 -00 07 04.7 21.4   705 – Apache Point MPS 198195
2006 11 09.22493 00 16 20.46 -00 07 05.1 20.6 V 705 – Apache Point MPS 198195
2008 03 08.31678 11 48 14.83 -03 18 17.6 19.4 V 703 – Catalina Sky Survey MPS 242159
2008 03 08.32323 11 48 14.61 -03 18 13.6 19.8 V 703 – Catalina Sky Survey MPS 242159
2008 03 08.32966 11 48 14.32 -03 18 08.7 19.2 V 703 – Catalina Sky Survey MPS 242159
2008 03 08.33613 11 48 14.14 -03 18 03.7 19.7 V 703 – Catalina Sky Survey MPS 242159
2008 03 09.28615 11 47 37.60 -03 07 35.0 19.3 V 703 – Catalina Sky Survey MPS 242159
2008 03 09.29299 11 47 37.32 -03 07 28.9 19.4 V 703 – Catalina Sky Survey MPS 242159
2008 03 09.29983 11 47 36.99 -03 07 24.3 19.6 V 703 – Catalina Sky Survey MPS 242159
2008 03 09.30660 11 47 36.81 -03 07 19.6 20.6 V 703 – Catalina Sky Survey MPS 242159
2008 03 10.22469 11 47 00.61 -02 56 54.0 19.5 V 691 – Steward Observatory, Kitt Peak-Spacewatch MPS 242159
2008 03 10.24238 11 46 59.83 -02 56 41.9 19.6 V 691 – Steward Observatory, Kitt Peak-Spacewatch MPS 242159
2008 03 10.26008 11 46 59.04 -02 56 29.5 19.5 V 691 – Steward Observatory, Kitt Peak-Spacewatch MPS 242159
2008 03 10.35601 11 46 54.66 -02 55 23.5 19.5 V G96 – Mt. Lemmon Survey MPS 242159
2008 03 10.36101 11 46 54.40 -02 55 19.8 19.6 V G96 – Mt. Lemmon Survey MPS 242159
2008 03 10.36598 11 46 54.19 -02 55 16.5 19.4 V G96 – Mt. Lemmon Survey MPS 242159
2008 03 10.37096 11 46 53.97 -02 55 13.0 19.4 V G96 – Mt. Lemmon Survey MPS 242159
2008 03 28.30632 11 34 03.27 +01 02 19.9 19.3   704 – Lincoln Laboratory ETS, New Mexico MPS 244741
2008 03 28.31821 11 34 02.79 +01 02 29.3 19.5   704 – Lincoln Laboratory ETS, New Mexico MPS 244741
2008 03 28.33009 11 34 02.26 +01 02 38.4 19.2   704 – Lincoln Laboratory ETS, New Mexico MPS 244741
2008 03 28.35409 11 34 01.19 +01 02 58.7 19.6   704 – Lincoln Laboratory ETS, New Mexico MPS 244741
2008 04 11.24240 11 27 45.50 +03 57 20.4 19.8 V G96 – Mt. Lemmon Survey MPS 246787
2008 04 11.24911 11 27 45.39 +03 57 24.9 19.7 V G96 – Mt. Lemmon Survey MPS 246787
2008 04 11.25580 11 27 45.28 +03 57 29.0 19.6 V G96 – Mt. Lemmon Survey MPS 246787
2008 04 11.26252 11 27 45.18 +03 57 33.4 19.7 V G96 – Mt. Lemmon Survey MPS 246787
2008 05 07.23742 11 37 16.35 +06 24 05.5 20.2 V G96 – Mt. Lemmon Survey MPS 248997
2008 05 07.24254 11 37 16.64 +06 24 05.5 20.4 V G96 – Mt. Lemmon Survey MPS 248997
2008 05 07.24773 11 37 16.89 +06 24 05.3 20.2 V G96 – Mt. Lemmon Survey MPS 248997
2008 05 07.25273 11 37 17.14 +06 24 05.8 20.1 V G96 – Mt. Lemmon Survey MPS 248997
2016 02 10.57482 14 14 37.455 -15 08 29.00 21.4 w F51 – Pan-STARRS 1, Haleakala MPS 679053
2016 02 10.58611 14 14 38.839 -15 08 33.32 21.4 w F51 – Pan-STARRS 1, Haleakala MPS 679053
2016 02 10.59741 14 14 40.201 -15 08 37.72 21.5 w F51 – Pan-STARRS 1, Haleakala MPS 679053
2016 02 10.60866 14 14 41.595 -15 08 42.07 21.4 w F51 – Pan-STARRS 1, Haleakala MPS 679053
2016 03 04.59486 14 59 59.323 -16 32 48.58 20.8 w F51 – Pan-STARRS 1, Haleakala MPS 690178
2016 03 04.60764 15 00 00.640 -16 32 49.27 20.9 w F51 – Pan-STARRS 1, Haleakala MPS 690178
2016 03 04.62041 15 00 01.961 -16 32 49.85 20.8 w F51 – Pan-STARRS 1, Haleakala MPS 690178
2016 03 04.63321 15 00 03.280 -16 32 50.17 20.9 w F51 – Pan-STARRS 1, Haleakala MPS 690178
2016 03 15.56348 15 18 18.690 -16 23 05.57 20.3 w F51 – Pan-STARRS 1, Haleakala MPS 692632
2016 03 15.57789 15 18 19.943 -16 23 03.35 20.4 w F51 – Pan-STARRS 1, Haleakala MPS 692632
2016 03 15.59228 15 18 21.188 -16 23 01.20 20.4 w F51 – Pan-STARRS 1, Haleakala MPS 692632
2016 03 15.60667 15 18 22.436 -16 22 58.97 20.4 w F51 – Pan-STARRS 1, Haleakala MPS 692632
2016 03 17.56587 15 21 19.085 -16 17 28.75 20.3 w F51 – Pan-STARRS 1, Haleakala MPS 692632
2016 03 17.57712 15 21 20.016 -16 17 26.63 20.5 w F51 – Pan-STARRS 1, Haleakala MPS 692632
2016 03 17.58833 15 21 20.944 -16 17 24.58 20.3 w F51 – Pan-STARRS 1, Haleakala MPS 692632
2016 03 17.59955 15 21 21.880 -16 17 22.54 20.3 w F51 – Pan-STARRS 1, Haleakala MPS 692632
2016 03 31.45565 15 38 35.69 -15 05 39.2 20.1 V 703 – Catalina Sky Survey MPS 698693
2016 03 31.46219 15 38 35.99 -15 05 36.3 20.1 V 703 – Catalina Sky Survey MPS 698693
2016 03 31.46870 15 38 36.32 -15 05 33.9 20.8 V 703 – Catalina Sky Survey MPS 698693
2016 03 31.47521 15 38 36.70 -15 05 29.9 19.9 V 703 – Catalina Sky Survey MPS 698693
2016 04 01.52835 15 39 38.170 -14 57 42.23 19.8 r F51 – Pan-STARRS 1, Haleakala MPS 698693
